Starlink 30843

operational
NORAD ID: 58241 Int'l Des: 2023-171 Owner: SPXS Country: US Constellation: starlink
LEOCIRCULAR

关于 Starlink 30843

正在加载描述...

实时位置

正在加载3D地球...

即将过境

高度历史

Altitude vs Time

uPlot chart will show altitude changes over time

两行轨道根数

1 58241U 23171M 25306.13715767 .00000221 00000-0 31424-4 0 9990
2 58241 43.0025 259.4633 0001109 267.8848 92.1868 15.02534877110550
Epoch: Nov 2, 2025 • Age: 32 hours

当前状态

高度 569.0 km
速度 7.58 km/s
星下点 -36.46°S, 6.67°W
发射日期 Nov 8, 2023
运行时间 1.9 years
类型 internet

技术详情

分类 Payload
质量 730.00 kg
干质量 700.00 kg
总质量 730.00 kg
长度 0.30 m
直径 4.10 m
跨度 29.00 m
形状 Box + pan
制造商 SPXS
平台类型 Starlink V2M
阶段状态 In Orbit
所有者/国家 SPXS/US

大型星座

Loading constellations...